Hourly Weather Rudnicze

Today, 20 April, Tuesday

Time Temperature Precipitation Wind Pressure Humidity
00:00 +9°C° 0.1 mm 1 mps 754 mmHg 84%
01:00 +9°C° 0.1 mm 1 mps 754 mmHg 84%
02:00 +9°C° 0 mm 1 mps 754 mmHg 85%
03:00 +9°C° 0 mm 1 mps 754 mmHg 85%
04:00 +8°C° 0 mm 1 mps 753 mmHg 85%
05:00 +8°C° 0 mm 0 mps 754 mmHg 83%
06:00 +9°C° 0 mm 0 mps 754 mmHg 80%
07:00 +10°C° 0 mm 0 mps 754 mmHg 77%
08:00 +11°C° 0.1 mm 0 mps 753 mmHg 74%
09:00 +13°C° 0.1 mm 1 mps 753 mmHg 70%
10:00 +14°C° 0.1 mm 1 mps 753 mmHg 66%
11:00 +15°C° 0.3 mm 1 mps 753 mmHg 60%
12:00 +16°C° 0.3 mm 1 mps 752 mmHg 55%
13:00 +18°C° 0.3 mm 1 mps 752 mmHg 49%
14:00 +18°C° 0 mm 1 mps 752 mmHg 48%
15:00 +17°C° 0 mm 2 mps 751 mmHg 47%
16:00 +17°C° 0 mm 2 mps 751 mmHg 46%
17:00 +15°C° 0.1 mm 2 mps 751 mmHg 53%
18:00 +14°C° 0.1 mm 2 mps 751 mmHg 60%
19:00 +13°C° 0.1 mm 2 mps 751 mmHg 66%
20:00 +12°C° 0 mm 2 mps 751 mmHg 70%
21:00 +10°C° 0 mm 2 mps 751 mmHg 74%
22:00 +10°C° 0 mm 1 mps 751 mmHg 77%
23:00 +9°C° 0 mm 1 mps 751 mmHg 80%

Tomorrow, 21 April, Wednesday

Time Temperature Precipitation Wind Pressure Humidity
00:00 +9°C° 0 mm 1 mps 751 mmHg 82%
01:00 +8°C° 0 mm 1 mps 750 mmHg 84%
02:00 +8°C° 0 mm 1 mps 750 mmHg 86%
03:00 +6°C° 0 mm 2 mps 750 mmHg 88%
04:00 +6°C° 0 mm 2 mps 750 mmHg 90%
05:00 +7°C° 0 mm 2 mps 750 mmHg 86%
06:00 +8°C° 0 mm 2 mps 750 mmHg 82%
07:00 +9°C° 0 mm 2 mps 750 mmHg 78%
08:00 +10°C° 0 mm 2 mps 750 mmHg 70%
09:00 +12°C° 0 mm 3 mps 750 mmHg 63%
10:00 +13°C° 0 mm 3 mps 750 mmHg 55%
11:00 +14°C° 0 mm 3 mps 750 mmHg 50%
12:00 +15°C° 0 mm 4 mps 750 mmHg 45%
13:00 +15°C° 0 mm 4 mps 750 mmHg 40%
14:00 +15°C° 0 mm 4 mps 749 mmHg 42%
15:00 +15°C° 0 mm 4 mps 749 mmHg 44%
16:00 +15°C° 0 mm 4 mps 749 mmHg 47%
17:00 +13°C° 0 mm 4 mps 749 mmHg 53%
18:00 +12°C° 0 mm 4 mps 749 mmHg 58%
19:00 +11°C° 0 mm 4 mps 749 mmHg 64%
20:00 +8°C° 0 mm 4 mps 749 mmHg 69%
21:00 +7°C° 0 mm 4 mps 750 mmHg 74%
22:00 +5°C° 0 mm 5 mps 750 mmHg 79%
23:00 +5°C° 0 mm 5 mps 750 mmHg 80%

Day after tomorrow, 22 April, Thursday

Time Temperature Precipitation Wind Pressure Humidity
00:00 +3°C° 0 mm 5 mps 750 mmHg 81%
01:00 +3°C° 0 mm 5 mps 750 mmHg 81%
02:00 +2°C° 0 mm 5 mps 750 mmHg 82%
03:00 +1°C° 0 mm 5 mps 750 mmHg 82%
04:00 0°C° 0 mm 5 mps 750 mmHg 83%
05:00 -1°C° 0 mm 6 mps 751 mmHg 79%
06:00 +1°C° 0 mm 6 mps 751 mmHg 76%
07:00 0°C° 0 mm 7 mps 751 mmHg 72%
08:00 +2°C° 0 mm 7 mps 751 mmHg 68%
09:00 +3°C° 0 mm 7 mps 751 mmHg 64%
10:00 +4°C° 0 mm 7 mps 751 mmHg 60%
11:00 +4°C° 0.3 mm 7 mps 751 mmHg 66%
12:00 +4°C° 0.3 mm 7 mps 751 mmHg 73%
13:00 +4°C° 0.3 mm 7 mps 751 mmHg 80%
14:00 +4°C° 0.3 mm 7 mps 751 mmHg 74%
15:00 +5°C° 0.3 mm 6 mps 751 mmHg 68%
16:00 +5°C° 0.3 mm 6 mps 751 mmHg 62%
17:00 +5°C° 0.3 mm 5 mps 752 mmHg 67%
18:00 +3°C° 0.3 mm 5 mps 752 mmHg 72%
19:00 +3°C° 0.3 mm 4 mps 752 mmHg 77%
20:00 +3°C° 0 mm 4 mps 752 mmHg 79%
21:00 +1°C° 0 mm 4 mps 752 mmHg 81%
22:00 +1°C° 0 mm 4 mps 752 mmHg 83%
23:00 +1°C° 0 mm 5 mps 752 mmHg 82%

23 April, Friday

Time Temperature Precipitation Wind Pressure Humidity
00:00 +1°C° 0 mm 5 mps 752 mmHg 80%
01:00 +1°C° 0 mm 6 mps 752 mmHg 79%
02:00 +1°C° 0 mm 6 mps 753 mmHg 82%
03:00 -1°C° 0 mm 6 mps 753 mmHg 86%
04:00 -1°C° 0 mm 6 mps 753 mmHg 89%
05:00 -1°C° 0 mm 6 mps 754 mmHg 87%
06:00 +1°C° 0 mm 6 mps 754 mmHg 85%
07:00 +1°C° 0 mm 6 mps 755 mmHg 83%
08:00 +3°C° 0.1 mm 6 mps 755 mmHg 73%
09:00 +4°C° 0.1 mm 7 mps 756 mmHg 64%
10:00 +5°C° 0.1 mm 7 mps 756 mmHg 54%
11:00 +6°C° 0 mm 8 mps 756 mmHg 47%
12:00 +7°C° 0 mm 8 mps 756 mmHg 39%
13:00 +9°C° 0 mm 8 mps 756 mmHg 32%
14:00 +9°C° 0 mm 8 mps 757 mmHg 34%
15:00 +8°C° 0 mm 7 mps 757 mmHg 35%
16:00 +8°C° 0 mm 6 mps 758 mmHg 36%
17:00 +7°C° 0 mm 5 mps 758 mmHg 42%
18:00 +5°C° 0 mm 3 mps 758 mmHg 47%
19:00 +6°C° 0 mm 1 mps 758 mmHg 52%
20:00 +6°C° 0 mm 1 mps 758 mmHg 53%
21:00 +6°C° 0 mm 1 mps 758 mmHg 53%
22:00 +6°C° 0 mm 1 mps 758 mmHg 53%
23:00 +5°C° 0 mm 1 mps 758 mmHg 62%

24 April, Saturday

Time Temperature Precipitation Wind Pressure Humidity
00:00 +4°C° 0 mm 2 mps 757 mmHg 70%
01:00 +3°C° 0 mm 2 mps 757 mmHg 78%
02:00 +3°C° 0 mm 2 mps 757 mmHg 81%
03:00 +2°C° 0 mm 3 mps 757 mmHg 84%
04:00 +2°C° 0 mm 3 mps 756 mmHg 87%
05:00 +3°C° 0 mm 3 mps 756 mmHg 86%
06:00 +3°C° 0 mm 4 mps 756 mmHg 85%
07:00 +3°C° 0 mm 5 mps 756 mmHg 84%
08:00 +5°C° 0 mm 5 mps 756 mmHg 80%
09:00 +5°C° 0 mm 5 mps 756 mmHg 77%
10:00 +5°C° 0 mm 6 mps 757 mmHg 73%
11:00 +5°C° 0.1 mm 6 mps 757 mmHg 72%
12:00 +5°C° 0.1 mm 6 mps 757 mmHg 71%
13:00 +5°C° 0.1 mm 6 mps 757 mmHg 70%
14:00 +7°C° 0.1 mm 6 mps 757 mmHg 67%
15:00 +7°C° 0.1 mm 6 mps 757 mmHg 64%
16:00 +8°C° 0.1 mm 6 mps 757 mmHg 60%
17:00 +6°C° 0 mm 5 mps 757 mmHg 60%
18:00 +5°C° 0 mm 4 mps 757 mmHg 60%
19:00 +4°C° 0 mm 4 mps 758 mmHg 60%
20:00 +3°C° 0 mm 3 mps 758 mmHg 59%
21:00 +1°C° 0 mm 3 mps 759 mmHg 59%
22:00 0°C° 0 mm 3 mps 759 mmHg 59%
23:00 0°C° 0 mm 3 mps 759 mmHg 62%

25 April, Sunday

Time Temperature Precipitation Wind Pressure Humidity
00:00 -1°C° 0 mm 3 mps 759 mmHg 65%
01:00 -1°C° 0 mm 3 mps 759 mmHg 67%
02:00 -1°C° 0 mm 3 mps 759 mmHg 70%
03:00 -1°C° 0 mm 3 mps 760 mmHg 73%
04:00 -1°C° 0 mm 3 mps 760 mmHg 75%
05:00 0°C° 0 mm 3 mps 760 mmHg 69%
06:00 +1°C° 0 mm 4 mps 760 mmHg 62%
07:00 +4°C° 0 mm 4 mps 761 mmHg 56%
08:00 +5°C° 0 mm 5 mps 761 mmHg 49%
09:00 +5°C° 0 mm 6 mps 761 mmHg 43%
10:00 +8°C° 0 mm 6 mps 761 mmHg 37%
11:00 +8°C° 0 mm 6 mps 761 mmHg 36%
12:00 +9°C° 0 mm 6 mps 761 mmHg 35%
13:00 +9°C° 0 mm 6 mps 761 mmHg 34%
14:00 +9°C° 0 mm 6 mps 761 mmHg 34%
15:00 +9°C° 0 mm 6 mps 761 mmHg 35%
16:00 +9°C° 0 mm 6 mps 761 mmHg 35%
17:00 +7°C° 0 mm 5 mps 761 mmHg 42%
18:00 +5°C° 0 mm 4 mps 761 mmHg 48%
19:00 +3°C° 0 mm 3 mps 761 mmHg 54%
20:00 +3°C° 0 mm 2 mps 761 mmHg 55%
21:00 +3°C° 0 mm 2 mps 761 mmHg 55%
22:00 +3°C° 0 mm 1 mps 761 mmHg 56%
23:00 +2°C° 0 mm 1 mps 761 mmHg 58%
Show more